www.pogodaiklimat.ru

Погода и климат >> Архив погоды >> Россия >> Ставропольский край >> Буденновск


АРХИВ ПОГОДЫ в Буденновске

Время (UTC), дата Ветер
(напр.,м/с)
 
Видим.   Явления Облачность Т
(С)
Тd
(С)
f
(%)
Тe
(С)
Тes
(С)
Комфортность P
(гПа)
Po
(гПа)
Тmin
(С)
Tmax
(С)
R
(мм)
R24
(мм)
S
(см)
18 11.08 СЗ 1 20 км ясно +20.4 +5.0 36 +22 +22 комфорт 1016.2 1000.4
21 11.08 Ю 1 20 км ясно +15.1 +6.4 56 +16 +16 1017.1 1001.0
00 12.08 Ю 1 20 км ясно +12.6 +6.8 68 +13 +13 1017.3 1001.1
03 12.08 штиль 0 10 км 1/0
[Ac trans]
+13.1 +8.1 72 +13 +13 1018.0 1001.8 +10.8
06 12.08 ЮЗ 2 10 км ясно +24.5 +5.7 30 +24 +34 комфорт 1017.2 1001.6
09 12.08 З 3 10 км 3/3 1000 м
[Cu hum]
+29.1 +4.9 21 +27 +37 жарко 1015.4 1000.1
12 12.08 СЗ 4
{15}
10 км 8/8 1000 м
[Cu med, cong]
+29.6 +5.5 22 +28 +29 жарко 1014.6 999.3
15 12.08 С 3
{10}
10 км 8/8 600 м
[Sc diur, vesp]
+29.3 +6.9 24 +28 +28 жарко 1014.6 999.3 +30.8
18 12.08 С 1 20 км ясно +23.1 +8.2 38 +24 +24 комфорт 1016.3 1000.7
21 12.08 СВ 1 20 км ясно +20.9 +6.5 39 +23 +23 комфорт 1017.4 1001.6
00 13.08 штиль 0 20 км ясно +15.3 +7.0 58 +15 +15 1018.2 1002.1
03 13.08 С 2 10 км 3/3 600 м
[Sc]
+16.3 +6.1 51 +16 +17 1018.8 1002.8 +14.4
06 13.08 СВ 2 10 км ясно +23.4 +4.3 29 +23 +33 комфорт 1019.0 1003.4
09 13.08 СВ 2 10 км ясно +27.9 +3.1 20 +26 +42 жарко 1017.7 1002.3
12 13.08 СЗ 3 10 км ясно +29.8 -1.3 13 +27 +35 жарко 1016.3 1001.0
15 13.08 С 2 10 км ясно +28.7 -1.4 14 +26 +27 жарко 1015.8 1000.4 +30.3
18 13.08 С 2 20 км ясно +23.7 +3.1 26 +23 +23 комфорт 1017.3 1001.7
21 13.08 В 1 20 км ясно +19.8 +3.2 33 +21 +21 комфорт 1017.0 1001.2
00 14.08 СВ 1 20 км ясно +14.6 +6.7 59 +15 +15 1017.2 1001.1
03 14.08 СЗ 1 10 км ясно +15.6 +5.2 50 +16 +17 1017.9 1001.8 +13.0
06 14.08 В 2 10 км ясно +25.9 +4.0 24 +25 +34 комфорт 1017.1 1001.6
09 14.08 В 3 10 км ясно +29.2 +3.4 19 +27 +41 жарко 1015.3 1000.0
12 14.08 СВ 4
{10}
10 км ясно +30.8 +0.1 14 +28 +34 жарко 1013.9 998.7
15 14.08 В 3 10 км ясно +29.7 -0.4 14 +27 +27 жарко 1013.2 997.9 +31.0
18 14.08 В 2 20 км ясно +23.5 +0.9 23 +23 +23 комфорт 1014.1 998.5
21 14.08 ЮВ 2 20 км ясно +20.0 +4.5 36 +21 +21 комфорт 1014.0 998.2
00 15.08 В 2 20 км ясно +17.7 +8.8 56 +18 +18 1013.7 997.8
03 15.08 В 2 10 км 1/0
[Ci fib]
+16.7 +9.8 64 +17 +17 1013.7 997.8 +15.4
06 15.08 В 4
{10}
10 км ясно +25.1 +6.3 30 +25 +31 комфорт 1012.9 997.4
09 15.08 В 6-13
{14}
10 км ясно +30.8 -1.7 12 +28 +34 жарко 1011.7 996.5
12 15.08 В 6-12
{14}
10 км пыльный позёмок ясно +32.8 -0.3 12 +29 +33 жарко 1010.0 994.9
15 15.08 В 6-11
{15}
10 км ясно +29.8 +4.3 20 +28 +28 жарко 1009.7 994.5 +33.3
18 15.08 В 4
{11}
20 км ясно +23.6 +7.8 36 +24 +24 комфорт 1011.0 995.5
21 15.08 В 3 20 км 4/0
[Ac trans Ci fib]
+18.7 +9.0 53 +19 +19 1011.0 995.3
00 16.08 В 2 10 км 10/10 600 м
[Sc]
+20.0 +14.7 72 +23 +23 комфорт 1010.3 994.6
03 16.08 В 3 10 км 10/10 600 м
[Sc]
+20.3 +15.7 75 +23 +23 комфорт 1010.1 994.5 +18.3
06 16.08 В 3 10 км 10/10 600 м
[Sc]
+21.3 +16.3 73 +25 +25 комфорт 1010.1 994.5
09 16.08 В 5 10 км 9/8 600 м
[Sc Ac trans]
+26.9 +17.6 57 +31 +32 душно 1008.4 993.1
12 16.08 В 4
{11}
10 км 3/0
[Ci fib]
+32.2 +15.4 36 +34 +40 душно 1005.5 990.5
15 16.08 В 3
{11}
10 км 4/0
[Ac trans Ci fib]
+30.8 +14.0 36 +32 +33 жарко 1005.4 990.4 +32.7
18 16.08 В 3 20 км 8/4 600 м
[Sc Ac trans Ci fib]
+26.1 +13.2 45 +28 +28 жарко 1007.2 991.9
21 16.08 В 2 20 км 8/3 600 м
[Sc Ac trans Ci fib]
+22.5 +15.0 63 +26 +26 жарко 1007.6 992.1
00 17.08 СВ 2 20 км 8/8 600 м
[]
+20.8 +16.1 74 +25 +25 комфорт 1007.7 992.2
03 17.08 З 1 10 км слаб. ливневой дождь 10/10 600 м
[Cb calv]
+19.6 +16.1 80 +23 +23 комфорт 1007.2 991.6 +19.6 0.0
06 17.08 СВ 1 10 км {гроза, ливн. осадки} 9/3 600 м
[Sc Ac trans Ci fib]
+21.8 +17.1 75 +26 +30 душно 1008.9 993.4 +19.4
09 17.08 СВ 1 10 км в посл. час гроза {ливн. осадки} 9/1 600 м
[Cb cap Ac trans Ci fib]
+25.1 +18.0 65 +29 +39 душно 1008.6 993.2
12 17.08 С 2 10 км {гроза, ливн. осадки} 9/1 600 м
[Cu hum Ac trans Ci fib]
+29.9 +17.8 48 +34 +39 очень
душно
1008.3 993.2
15 17.08 З 2 10 км гроза, ливневой дождь 10/10 600 м
[Cb cap]
+29.0 +17.3 49 +33 +33 очень
душно
1009.2 994.1 +31.4 0.5
18 17.08 З 3
{11}
20 км {гроза, ливн. осадки} 10/10 600 м
[Sc]
+24.6 +18.5 69 +29 +29 душно 1010.0 994.7
21 17.08 СВ 2 10 км 9/0
[Ac trans]
+22.5 +17.6 74 +28 +28 душно 1009.1 993.6
00 18.08 В 1 10 км 4/0
[Ac trans]
+20.2 +17.7 86 +25 +25 комфорт 1008.9 993.3
03 18.08 С 2 4000 м дымка 3/1 600 м
[Sc Ac trans Ci fib]
+19.2 +17.4 89 +22 +22 комфорт 1008.4 992.8 +19.1 1
06 18.08 В 2 10 км ясно +26.1 +18.4 63 +31 +40 очень
душно
1008.4 993.1
09 18.08 В 3 10 км 1/1 1000 м
[Cu hum]
+32.1 +13.9 33 +33 +45 жарко 1006.8 991.8
12 18.08 С 2 10 км 4/1 1000 м
[Cu med, cong Cc]
+34.2 +8.5 21 +33 +41 жарко 1005.9 991.0

 

Местоположение метеостанции Буденновск (Ставропольский край, Россия): широта 44.78 долгота 44.13 высота над уровнем моря 136 м.

В архиве по умолчанию представлена погода в Буденновске за последнюю неделю. Архивные данные за месяц целиком и за предыдущие месяцы, начиная с января 2011 года, Вы можете получить, выбрав интересующий диапазон дат из раскрывающегося списка и нажав кнопку "Ввод!".


*Определитесь, кто Вы:
робот инопланетянин человек

Внимание! Время в таблицах - всемирное. Для получения местного времени необходимо прибавить поправку, которая равна 3 ч.

Смотрите также архив погоды в соседних городах и на ближайших метеорологических станциях:

Погода в Зеленокумске (Ставропольский край, Россия) (44 км)
Погода в Благодарном (Ставропольский край, Россия) (64 км)
Погода в Арзгире (Ставропольский край, Россия) (69 км)
Погода в Александровском (Ставропольский край, Россия) (90 км)
Погода в Георгиевске (Ставропольский край, Россия) (90 км)
Погода в Минеральных Водах (Ставропольский край, Россия) (103 км)
Погода в Рощино (Ставропольский край, Россия) (110 км)
Погода в Прохладный (Кабардино-Балкария, Россия) (115 км)
Погода в Светлограде (Ставропольский край, Россия) (119 км)
Погода в Ики-Буруле (Калмыкия, Россия) (120 км)

Пояснения к столбцам:

Ветер - указаны скорость ветра в м/с - средняя за 10 мин, порывы в срок и между сроками (в фигурных скобках) и направление, откуда дует ветер: С - северный, СВ - северо-восточный, В - восточный, ЮВ - юго-восточный, Ю - южный, ЮЗ - юго-западный, З - западный, СЗ - северо-западный.
Видимость - горизонтальная дальность видимости в метрах или километрах. При видимости от 1 до 10 км при отсутствии осадков обычно наблюдается дымка, при ухудшении видимости до 1 км и менее - туман. В сухую погоду видимость может ухудшаться дымом, пылью или мглою.
Явления - указаны атмосферные явления, наблюдавшиеся в срок или в последний час перед сроком; фигурными скобками обозначены явления, наблюдавшиеся между сроками (за 1-3 часа до срока); квадратными скобками обозначены град или гололедные отложения с указанием их диаметра в мм.
Облачность - указаны через наклонную черту общая и нижняя облачность в баллах и высота нижней границы облаков в метрах; квадратными скобками обозначены формы облаков: Ci - перистые, Cs - перисто-слоистые, Cc - перисто-кучевые, Ac - высококучевые, As - высокослоистые, Sc - слоисто-кучевые, Ns - слоисто-дождевые, Cu - кучевые, Cb - кучево-дождевые. Подробнее классификацию облаков см. в Атласе облаков (PDF).
T - Температура воздуха - температура, измеренная на высоте 2 м над землей.
Td - Температура точки росы - температура, при понижении до которой содержащийся в воздухе водяной пар достигнет насыщения.
f - Относительная влажность воздуха - влажноcть воздуха, измеренная на высоте 2 м над землей.
Te - Эффективная температура - температура, которую ощущает одетый по сезону человек в тени. Характеристика душности погоды. При расчете учитывается влияние влажности воздуха и скорости ветра на теплоощущения человека.
Tes - Эффективная температура на солнце - температура, которую ощущает человек, с поправкой на солнечный нагрев. Характеристика знойности погоды. Зависит от высоты солнца над горизонтом, облачности и скорости ветра. Ночью, в пасмурную погоду, а также при ветре 12 м/с и более поправка равна нулю.
P - Атмосферное давление - приведенное к уровню моря атмосферное давление.
Po - Атмосферное давление - измеренное на уровне метеостанции атмосферное давление.
Tmin - Минимальная температура - минимум температуры воздуха на высоте 2 м над землей.
Tmax - Максимальная температура - максимум температуры воздуха на высоте 2 м над землей.
R - Количество осадков - Количество выпавших осадков за период времени, мм. При наведении курсора мыши на число - период времени, за который выпало указанное количество осадков.
R24 - Количество осадков - Количество выпавших осадков за 24 часа, мм.
S - Снежный покров - Высота снежного покрова, см. При наведении курсора мыши на число - состояние снежного покрова и степень покрытия местности в баллах.